FW4702 Weather Reports


Display with metric or nautical units.
time (UTC)temp
F
wind
direction
speed
MPH
gust
MPH
rain 1hr
in
rain 24hr
in
rain mn
in
humidity
%
barometer
mb
20260906201059 94 5 1.0 4.0 0.00 0.00 0.00 56 1011.0
20260906200556 94 321 1.0 4.0 0.00 0.00 0.00 55 1011.0
20260906195555 95 298 1.0 6.0 0.00 0.00 0.00 54 1011.2
20260906195054 95 61 1.0 7.0 0.00 0.00 0.00 56 1011.4
20260906194611 95 0 2.0 8.0 0.00 0.00 0.00 55 1011.3
20260906194054 95 26 4.0 8.0 0.00 0.00 0.00 54 1011.4
20260906193555 95 82 2.0 7.0 0.00 0.00 0.00 54 1011.4
20260906193106 95 322 1.0 5.0 0.00 0.00 0.00 55 1011.6
20260906192553 95 51 2.0 6.0 0.00 0.00 0.00 56 1011.7
20260906192052 95 0 1.0 6.0 0.00 0.00 0.00 56 1011.8
20260906191612 95 73 1.0 7.0 0.00 0.00 0.00 54 1011.9
20260906191053 95 302 1.0 9.0 0.00 0.00 0.00 55 1011.9
20260906190555 95 71 2.0 9.0 0.00 0.00 0.00 56 1011.9
20260906190059 94 61 4.0 9.0 0.00 0.00 0.00 56 1012.0
20260906185554 94 286 2.0 8.0 0.00 0.00 0.00 55 1012.2
20260906185053 94 307 1.0 7.0 0.00 0.00 0.00 55 1012.3
20260906184624 94 349 2.0 7.0 0.00 0.00 0.00 55 1012.3
20260906184053 94 74 1.0 7.0 0.00 0.00 0.00 54 1012.3
20260906183553 94 49 2.0 7.0 0.00 0.00 0.00 56 1012.3
20260906183115 94 341 0.0 3.0 0.00 0.00 0.00 58 1012.3
20260906182553 94 0 1.0 4.0 0.00 0.00 0.00 56 1012.4
20260906182056 94 34 2.0 8.0 0.00 0.00 0.00 56 1012.6
20260906181610 94 38 2.0 8.0 0.00 0.00 0.00 57 1012.6
20260906181053 94 81 2.0 8.0 0.00 0.00 0.00 56 1012.7
20260906180553 94 323 1.0 4.0 0.00 0.00 0.00 57 1012.7
20260906180124 94 0 1.0 5.0 0.00 0.00 0.00 55 1012.7
20260906175558 94 246 2.0 6.0 0.00 0.00 0.00 55 1012.8
20260906175056 94 102 2.0 6.0 0.00 0.00 0.00 54 1013.0
20260906174628 93 66 1.0 6.0 0.00 0.00 0.00 56 1013.1
20260906174054 93 132 1.0 3.0 0.00 0.00 0.00 57 1013.2
20260906173554 93 0 1.0 3.0 0.00 0.00 0.00 57 1013.1
20260906173107 93 28 0.0 3.0 0.00 0.00 0.00 57 1013.1
20260906172558 93 319 0.0 3.0 0.00 0.00 0.00 57 1013.3
20260906172058 93 329 0.0 3.0 0.00 0.00 0.00 58 1013.3
20260906171615 92 71 0.0 4.0 0.00 0.00 0.00 58 1013.3
20260906171057 92 0 0.0 4.0 0.00 0.00 0.00 61 1013.3
20260906170556 92 48 1.0 4.0 0.00 0.00 0.00 58 1013.3
20260906170112 92 5 0.0 5.0 0.00 0.00 0.00 58 1013.3
20260906165557 91 0 2.0 6.0 0.00 0.00 0.00 59 1013.4
20260906165056 91 86 2.0 6.0 0.00 0.00 0.00 60 1013.3
20260906164605 91 169 1.0 3.0 0.00 0.00 0.00 64 1013.4
20260906164054 91 0 1.0 3.0 0.00 0.00 0.00 60 1013.6
20260906163553 91 0 2.0 4.0 0.00 0.00 0.00 59 1013.6
20260906163111 90 0 1.0 4.0 0.00 0.00 0.00 61 1013.7
20260906162553 90 0 0.0 3.0 0.00 0.00 0.00 62 1013.6
20260906162056 90 319 0.0 3.0 0.00 0.00 0.00 62 1013.8
20260906161623 89 65 0.0 3.0 0.00 0.00 0.00 63 1013.8
20260906161054 88 0 0.0 3.0 0.00 0.00 0.00 69 1013.8
20260906160556 88 0 0.0 2.0 0.00 0.00 0.00 71 1013.9
20260906160100 87 0 0.0 2.0 0.00 0.00 0.00 72 1013.9
20260906155600 87 0 0.0 3.0 0.00 0.00 0.00 71 1013.9
20260906155056 88 36 0.0 3.0 0.00 0.00 0.00 72 1013.9
20260906154606 87 57 1.0 3.0 0.00 0.00 0.00 71 1013.9
20260906154057 87 0 1.0 3.0 0.00 0.00 0.00 71 1013.8
20260906153556 87 0 0.0 3.0 0.00 0.00 0.00 73 1013.9
20260906153125 86 0 0.0 3.0 0.00 0.00 0.00 75 1013.8
20260906152557 85 99 0.0 3.0 0.00 0.00 0.00 74 1013.9
20260906152054 85 0 0.0 1.0 0.00 0.00 0.00 76 1013.9
20260906151601 85 0 0.0 2.0 0.00 0.00 0.00 76 1013.8
20260906151056 85 113 0.0 2.0 0.00 0.00 0.00 76 1013.9
20260906150556 84 59 0.0 2.0 0.00 0.00 0.00 75 1013.8
20260906150108 84 61 0.0 2.0 0.00 0.00 0.00 75 1013.7
20260906145601 84 0 0.0 2.0 0.00 0.00 0.00 77 1013.7
20260906145057 83 96 0.0 2.0 0.00 0.00 0.00 78 1013.6
20260906144605 84 0 0.0 2.0 0.00 0.00 0.00 77 1013.7
20260906144056 83 0 0.0 3.0 0.00 0.00 0.00 78 1013.7
20260906143556 82 0 0.0 3.0 0.00 0.00 0.00 78 1013.6
20260906143103 82 0 0.0 2.0 0.00 0.00 0.00 78 1013.6
20260906142556 82 163 0.0 3.0 0.00 0.00 0.00 78 1013.6
20260906142056 81 42 0.0 3.0 0.00 0.00 0.00 77 1013.7
20260906141621 82 0 0.0 2.0 0.00 0.00 0.00 79 1013.8
20260906141056 81 0 0.0 2.0 0.00 0.00 0.00 78 1013.8
20260906140556 81 0 0.0 2.0 0.00 0.00 0.00 78 1013.8
20260906140107 81 0 0.0 2.0 0.00 0.00 0.00 78 1013.7
20260906135556 80 0 0.0 2.0 0.00 0.00 0.00 79 1013.8
20260906135057 80 0 0.0 2.0 0.00 0.00 0.00 79 1013.9
20260906134603 80 0 0.0 3.0 0.00 0.00 0.00 79 1013.9
20260906134056 80 0 0.0 3.0 0.00 0.00 0.00 79 1013.9
20260906133555 80 48 0.0 3.0 0.00 0.00 0.00 78 1013.8
20260906133111 79 24 0.0 1.0 0.00 0.00 0.00 80 1013.9
20260906132556 79 0 0.0 1.0 0.00 0.00 0.00 81 1013.9
20260906132056 78 0 0.0 1.0 0.00 0.00 0.00 83 1014.0
20260906131609 78 0 0.0 1.0 0.00 0.00 0.00 82 1014.1
20260906131056 78 0 0.0 1.0 0.00 0.00 0.00 82 1014.3
20260906130556 77 0 0.0 1.0 0.00 0.00 0.00 84 1014.3
20260906130106 77 0 0.0 1.0 0.00 0.00 0.00 85 1014.3
20260906125559 77 0 0.0 1.0 0.00 0.00 0.00 84 1014.4
20260906125055 76 306 0.0 0.0 0.00 0.00 0.00 86 1014.3
20260906124605 76 0 0.0 1.0 0.00 0.00 0.00 86 1014.3
20260906124058 75 0 0.0 1.0 0.00 0.00 0.00 88 1014.3
20260906123555 74 0 0.0 2.0 0.00 0.00 0.00 89 1014.4
20260906123110 74 0 0.0 2.0 0.00 0.00 0.00 91 1014.3
20260906122554 73 306 0.0 1.0 0.00 0.00 0.00 91 1014.3
20260906122054 73 0 0.0 0.0 0.00 0.00 0.00 92 1014.5
20260906121615 72 0 0.0 1.0 0.00 0.00 0.00 92 1014.5
20260906121056 72 0 0.0 1.0 0.00 0.00 0.00 92 1014.4
20260906120600 72 0 0.0 1.0 0.00 0.00 0.00 92 1014.2
20260906120118 72 0 0.0 1.0 0.00 0.00 0.00 92 1014.3
20260906115556 72 0 0.0 1.0 0.00 0.00 0.00 92 1014.4
20260906115055 72 0 0.0 0.0 0.00 0.00 0.00 92 1014.3
20260906114609 72 0 0.0 0.0 0.00 0.00 0.00 92 1014.3
20260906114052 72 0 0.0 0.0 0.00 0.00 0.00 91 1014.4
20260906113553 72 0 0.0 0.0 0.00 0.00 0.00 91 1014.4
20260906113058 72 0 0.0 0.0 0.00 0.00 0.00 90 1014.3
20260906112555 73 0 0.0 2.0 0.00 0.00 0.00 90 1014.4
20260906112056 73 0 0.0 2.0 0.00 0.00 0.00 90 1014.3
20260906111607 73 326 0.0 1.0 0.00 0.00 0.00 89 1014.2
20260906111054 73 0 0.0 2.0 0.00 0.00 0.00 89 1014.2
20260906110553 73 0 0.0 2.0 0.00 0.00 0.00 88 1014.0
20260906110104 73 338 0.0 1.0 0.00 0.00 0.00 88 1013.9
20260906105553 73 0 0.0 1.0 0.00 0.00 0.00 87 1013.7
20260906105055 74 338 0.0 2.0 0.00 0.00 0.00 87 1013.7
20260906104602 73 0 0.0 2.0 0.00 0.00 0.00 86 1013.7
20260906104055 74 0 0.0 2.0 0.00 0.00 0.00 87 1013.8
20260906103559 74 0 0.0 4.0 0.00 0.00 0.00 86 1013.6
20260906103113 74 0 1.0 4.0 0.00 0.00 0.00 85 1013.7
20260906102556 74 325 2.0 4.0 0.00 0.00 0.00 87 1013.7
20260906102053 74 0 0.0 2.0 0.00 0.00 0.00 89 1013.3
20260906101625 74 352 0.0 2.0 0.00 0.00 0.00 88 1013.3
20260906101053 73 337 0.0 2.0 0.00 0.00 0.00 88 1013.3
20260906100556 73 337 0.0 2.0 0.00 0.00 0.00 89 1013.3
20260906100104 73 0 1.0 2.0 0.00 0.00 0.00 88 1013.5
20260906095556 73 327 0.0 3.0 0.00 0.00 0.00 89 1013.2
20260906095053 74 0 0.0 3.0 0.00 0.00 0.00 88 1013.1
20260906094605 73 322 1.0 3.0 0.00 0.00 0.00 89 1013.3
20260906094053 73 319 0.0 2.0 0.00 0.00 0.00 90 1013.3
20260906093603 73 0 0.0 1.0 0.00 0.00 0.00 90 1013.3
20260906093109 72 0 0.0 1.0 0.00 0.00 0.00 90 1013.2
20260906092553 73 202 0.0 1.0 0.00 0.00 0.00 89 1013.1
20260906092056 73 0 0.0 2.0 0.00 0.00 0.00 89 1013.2
20260906091618 73 202 0.0 2.0 0.00 0.00 0.00 89 1013.3
20260906091056 73 202 1.0 2.0 0.00 0.00 0.00 88 1013.2
20260906090555 74 161 0.0 1.0 0.00 0.00 0.00 87 1013.5
20260906090129 74 0 0.0 1.0 0.00 0.00 0.00 87 1013.7
20260906085555 74 0 0.0 2.0 0.00 0.00 0.00 87 1013.6
20260906085053 74 0 0.0 2.0 0.00 0.00 0.00 86 1013.6
20260906084626 74 0 0.0 2.0 0.00 0.00 0.00 86 1013.6
20260906084052 74 0 0.0 2.0 0.00 0.00 0.00 86 1013.2
20260906083556 74 0 0.0 2.0 0.00 0.00 0.00 86 1013.1
20260906083106 73 0 0.0 1.0 0.00 0.00 0.00 86 1013.1
20260906082558 74 0 0.0 1.0 0.00 0.00 0.00 87 1013.0
20260906082055 74 0 0.0 1.0 0.00 0.00 0.00 86 1013.0
20260906081610 75 0 0.0 6.0 0.00 0.00 0.00 85 1013.4
20260906081055 75 0 1.0 6.0 0.00 0.00 0.00 83 1013.4
20260906080553 75 0 0.0 4.0 0.00 0.00 0.00 83 1013.7
20260906080100 75 345 1.0 4.0 0.00 0.00 0.00 83 1013.9
20260906075556 76 0 0.0 8.0 0.00 0.00 0.00 82 1014.1
20260906075056 77 118 2.0 8.0 0.00 0.00 0.00 79 1014.2
20260906074623 78 0 2.0 15.0 0.00 0.00 0.00 78 1014.2
20260906074057 78 76 2.0 15.0 0.00 0.00 0.00 78 1014.3
20260906073559 78 29 3.0 16.0 0.00 0.00 0.00 78 1014.4
20260906073115 78 32 3.0 16.0 0.00 0.00 0.00 79 1014.4
20260906072556 78 59 4.0 13.0 0.00 0.00 0.00 80 1014.4
20260906072056 78 5 2.0 12.0 0.00 0.00 0.00 81 1014.5
20260906071607 78 54 4.0 12.0 0.00 0.00 0.00 82 1014.5
20260906071053 78 43 3.0 11.0 0.00 0.00 0.00 82 1014.6
20260906070556 78 93 3.0 9.0 0.00 0.00 0.00 83 1014.4
20260906070104 78 5 1.0 2.0 0.00 0.00 0.00 85 1014.2
20260906065553 78 71 0.0 5.0 0.00 0.00 0.00 86 1013.8
20260906065056 78 85 0.0 5.0 0.00 0.00 0.00 87 1013.8
20260906064606 77 39 2.0 5.0 0.00 0.00 0.00 87 1013.8
20260906064059 77 58 0.0 3.0 0.00 0.00 0.00 89 1013.8
20260906063555 77 0 0.0 3.0 0.00 0.00 0.00 89 1013.7
20260906063109 76 0 0.0 2.0 0.00 0.00 0.00 91 1013.6
20260906062618 76 22 0.0 2.0 0.00 0.00 0.00 92 1013.3
20260906062057 76 0 0.0 1.0 0.00 0.00 0.00 92 1013.3
20260906061603 76 0 0.0 0.0 0.00 0.00 0.00 92 1013.5
20260906061057 76 0 0.0 1.0 0.00 0.00 0.00 91 1013.5
20260906060558 76 0 0.0 1.0 0.00 0.00 0.00 91 1013.5
20260906060136 77 0 0.0 1.0 0.00 0.00 0.00 90 1013.5
20260906055558 76 0 0.0 1.0 0.00 0.00 0.00 91 1013.6
20260906055058 76 0 0.0 1.0 0.00 0.00 0.00 91 1013.6
20260906054617 76 0 0.0 2.0 0.00 0.00 0.00 90 1013.6
20260906054100 76 0 0.0 5.0 0.00 0.00 0.00 90 1013.6
20260906053557 77 240 0.0 5.0 0.00 0.00 0.00 89 1013.7
20260906053105 76 59 2.0 4.0 0.00 0.00 0.00 91 1014.0
20260906052557 76 66 0.0 2.0 0.00 0.00 0.00 91 1013.6
20260906052059 75 0 0.0 2.0 0.00 0.00 0.00 91 1013.3
20260906051604 75 0 0.0 3.0 0.00 0.00 0.00 92 1013.1
20260906051059 74 108 0.0 3.0 0.00 0.00 0.00 91 1013.0
20260906050601 75 0 0.0 0.0 0.00 0.00 0.00 91 1013.1
20260906050104 75 0 0.0 0.0 0.00 0.00 0.00 91 1013.0
20260906045557 75 0 0.0 0.0 0.00 0.00 0.00 91 1013.0
20260906045058 75 0 0.0 0.0 0.00 0.00 0.00 90 1013.2
20260906044605 75 0 0.0 0.0 0.00 0.00 0.00 91 1013.2
20260906044102 75 0 0.0 0.0 0.00 0.00 0.00 90 1013.3
20260906043558 75 0 0.0 0.0 0.00 0.00 0.00 90 1013.5
20260906043104 75 0 0.0 0.0 0.00 0.00 0.00 90 1013.5
20260906042558 75 0 0.0 0.0 0.00 0.00 0.00 91 1013.6
20260906042059 74 0 0.0 0.0 0.00 0.00 0.00 91 1013.7
20260906041604 74 0 0.0 0.0 0.00 0.00 0.00 90 1013.5
20260906041059 75 0 0.0 0.0 0.00 0.00 0.00 90 1013.4
20260906040558 75 0 0.0 0.0 0.00 0.00 0.00 89 1013.4
20260906040101 74 0 0.0 0.0 0.00 0.00 0.00 89 1013.4
20260906035558 74 0 0.0 0.0 0.00 0.00 0.00 90 1013.5
20260906035058 75 0 0.0 0.0 0.00 0.00 0.00 90 1013.5
20260906034607 75 0 0.0 0.0 0.00 0.00 0.00 90 1013.5
20260906034057 75 0 0.0 0.0 0.00 0.00 0.00 89 1013.5
20260906033558 75 0 0.0 0.0 0.00 0.00 0.00 89 1013.5
20260906033102 75 0 0.0 0.0 0.00 0.00 0.00 89 1013.5
20260906032558 75 0 0.0 0.0 0.00 0.00 0.00 88 1013.5
20260906032058 75 0 0.0 0.0 0.00 0.00 0.00 87 1013.5
20260906031558 75 0 0.0 0.0 0.00 0.00 0.00 88 1013.5
20260906031058 75 0 0.0 0.0 0.00 0.00 0.00 88 1013.5
20260906030553 75 0 0.0 0.0 0.00 0.00 0.00 88 1013.6
20260906030059 75 0 0.0 0.0 0.00 0.00 0.00 88 1013.5
20260906025557 75 0 0.0 0.0 0.00 0.00 0.00 87 1013.5
20260906025056 76 0 0.0 0.0 0.00 0.00 0.00 86 1013.4
20260906024621 76 0 0.0 1.0 0.00 0.00 0.00 85 1013.3
20260906024055 76 0 0.0 1.0 0.00 0.00 0.00 86 1013.3
20260906023553 76 0 0.0 1.0 0.00 0.00 0.00 87 1013.1
20260906023104 76 0 0.0 0.0 0.00 0.00 0.00 85 1013.1
20260906022556 76 0 0.0 1.0 0.00 0.00 0.00 86 1012.9
20260906022055 76 0 0.0 1.0 0.00 0.00 0.00 86 1012.9
20260906021606 77 0 0.0 1.0 0.00 0.00 0.00 85 1012.9
20260906021100 77 0 0.0 0.0 0.00 0.00 0.00 83 1012.9
20260906020553 76 0 0.0 0.0 0.00 0.00 0.00 84 1012.9
20260906020114 76 0 0.0 0.0 0.00 0.00 0.00 85 1012.8
20260906015558 76 0 0.0 0.0 0.00 0.00 0.00 86 1012.8
20260906015056 77 0 0.0 0.0 0.00 0.00 0.00 85 1012.6
20260906014609 76 0 0.0 0.0 0.00 0.00 0.00 84 1012.5
20260906014056 77 0 0.0 0.0 0.00 0.00 0.00 84 1012.5
20260906013555 77 0 0.0 0.0 0.00 0.00 0.00 83 1012.4
20260906013105 77 0 0.0 0.0 0.00 0.00 0.00 83 1012.3
20260906012556 77 0 0.0 0.0 0.00 0.00 0.00 83 1012.3
20260906012055 77 0 0.0 0.0 0.00 0.00 0.00 82 1012.3
20260906011607 77 0 0.0 0.0 0.00 0.00 0.00 81 1012.3
20260906011056 78 0 0.0 0.0 0.00 0.00 0.00 81 1012.2
20260906010556 78 0 0.0 1.0 0.00 0.00 0.00 79 1012.2
20260906010145 78 0 0.0 1.0 0.00 0.00 0.00 80 1012.1
20260906005553 79 0 0.0 1.0 0.00 0.00 0.00 79 1012.0
20260906005055 79 0 0.0 2.0 0.00 0.00 0.00 76 1012.0
20260906004615 79 0 0.0 2.0 0.00 0.00 0.00 77 1011.9
20260906004056 79 0 1.0 2.0 0.00 0.00 0.00 77 1011.9
20260906003556 80 0 0.0 2.0 0.00 0.00 0.00 75 1012.0
20260906003103 80 0 0.0 2.0 0.00 0.00 0.00 73 1012.0
20260906002555 80 313 0.0 3.0 0.00 0.00 0.00 74 1011.9
20260906002056 80 320 1.0 3.0 0.00 0.00 0.00 74 1012.1
20260906001607 81 222 1.0 2.0 0.00 0.00 0.00 72 1012.2
20260906001055 81 208 0.0 6.0 0.00 0.00 0.00 72 1012.3
20260906000555 82 184 1.0 7.0 0.00 0.00 0.00 72 1012.6
20260905235556 85 67 1.0 11.0 0.00 0.00 0.00 70 1012.8
20260905235056 85 65 5.0 13.0 0.00 0.00 0.00 65 1012.7
20260905234610 86 22 1.0 16.0 0.00 0.00 0.00 68 1012.5
20260905234056 87 34 5.0 16.0 0.00 0.00 0.00 67 1012.4
20260905233556 87 52 3.0 11.0 0.00 0.00 0.00 69 1012.3
20260905233120 88 38 1.0 4.0 0.00 0.00 0.00 73 1012.4
20260905232556 87 0 0.0 1.0 0.00 0.00 0.00 80 1011.9
20260905232056 87 0 0.0 1.0 0.00 0.00 0.00 78 1011.7
20260905231620 88 0 0.0 1.0 0.00 0.00 0.00 76 1011.6
20260905231056 88 0 0.0 1.0 0.00 0.00 0.00 71 1011.6
20260905230556 89 0 0.0 1.0 0.00 0.00 0.00 73 1011.6
20260905230114 90 0 0.0 2.0 0.00 0.00 0.00 68 1011.4
20260905225555 91 0 0.0 3.0 0.00 0.00 0.00 62 1011.5
20260905225056 93 0 1.0 3.0 0.00 0.00 0.00 59 1011.5
20260905224611 91 320 0.0 2.0 0.00 0.00 0.00 61 1011.5
20260905224057 92 5 0.0 2.0 0.00 0.00 0.00 60 1011.4
20260905223557 93 5 0.0 2.0 0.00 0.00 0.00 58 1011.5
20260905223123 93 0 0.0 2.0 0.00 0.00 0.00 60 1011.5
20260905222559 94 0 0.0 3.0 0.00 0.00 0.00 54 1011.6
20260905222055 94 0 0.0 3.0 0.00 0.00 0.00 57 1011.6
20260905221603 95 0 0.0 3.0 0.00 0.00 0.00 52 1011.6
20260905221056 95 321 0.0 2.0 0.00 0.00 0.00 53 1011.6
20260905220558 94 0 0.0 2.0 0.00 0.00 0.00 53 1011.7
20260905220104 94 0 0.0 4.0 0.00 0.00 0.00 54 1011.6
20260905215556 95 0 0.0 4.0 0.00 0.00 0.00 53 1011.7
20260905215059 94 352 0.0 2.0 0.00 0.00 0.00 55 1011.7
20260905214613 95 0 0.0 2.0 0.00 0.00 0.00 52 1011.7
20260905214057 94 331 0.0 5.0 0.00 0.00 0.00 54 1011.8
20260905213557 95 346 1.0 5.0 0.00 0.00 0.00 54 1011.8
20260905213103 96 300 1.0 4.0 0.00 0.00 0.00 53 1011.9
20260905212556 95 0 1.0 4.0 0.00 0.00 0.00 53 1011.9
20260905212056 95 0 1.0 4.0 0.00 0.00 0.00 52 1011.8
20260905211607 95 317 1.0 4.0 0.00 0.00 0.00 53 1011.8
20260905211056 95 0 1.0 4.0 0.00 0.00 0.00 53 1011.8
20260905210556 95 0 0.0 4.0 0.00 0.00 0.00 54 1011.7
20260905210116 95 333 1.0 4.0 0.00 0.00 0.00 52 1011.6
20260905205558 95 322 0.0 3.0 0.00 0.00 0.00 52 1011.8
20260905205056 95 302 2.0 3.0 0.00 0.00 0.00 52 1012.0
20260905204604 95 302 0.0 6.0 0.00 0.00 0.00 50 1012.0
20260905204056 96 90 1.0 6.0 0.00 0.00 0.00 51 1012.1
20260905203557 96 40 0.0 2.0 0.00 0.00 0.00 49 1012.2
20260905203058 96 0 0.0 4.0 0.00 0.00 0.00 49 1012.2
20260905202555 96 0 1.0 4.0 0.00 0.00 0.00 49 1012.2
20260905202100 96 37 0.0 3.0 0.00 0.00 0.00 47 1012.3
20260905201605 96 0 1.0 3.0 0.00 0.00 0.00 49 1012.3